Meacham, OR

9:06 PM PST on December 16, 2017 (GMT -0800)
Meacham

Weather History for KMEH - February, 2012

Change the Weather History Date:

Wednesday, February 22, 2012

  Actual Average Record
Temperature  
Mean Temperature 38 °F -  
Max Temperature 48 °F 38 °F 52 °F (2002)
Min Temperature 28 °F 18 °F 10 °F (2005)
Degree Days  
Heating Degree Days 27    
Moisture  
Dew Point 30 °F    
Average Humidity 73    
Maximum Humidity 87    
Minimum Humidity 39    
Precipitation  
Precipitation 0.33 in - - ()
Sea Level Pressure  
Sea Level Pressure 30.03 in    
Wind  
Wind Speed 8 mph (West)    
Max Wind Speed 14 mph    
Max Gust Speed 36 mph    
Visibility 8 miles    
Events Rain    
Averages and records for this station are not official NWS values.
T = Trace of Precipitation, MM = Missing Value Source: NWS Daily Summary

Daily Weather History Graph

Daily Weather History Graph

Search for Another Location

Airport or City:

Trip Planner

Search our weather history database for the weather conditions in past years. The results will help you decide how hot, cold, wet, or windy it might be!

Date:

Astronomy

Feb. 22, 2012 Rise Set
Actual Time 6:44 AM PST 5:30 PM PST
Civil Twilight 6:14 AM PST 6:00 PM PST
Nautical Twilight 5:40 AM PST 6:34 PM PST
Astronomical Twilight 5:06 AM PST 7:09 PM PST
Moon 6:40 AM PST (2/22) 6:48 PM PST (2/22)
Length of Visible Light 11h 45m
Length of Day
10h 45m
New Moon, 1% of the Moon is Illuminated
Feb 22
New Moon
Feb 29
First Quarter
Mar 8
Full
Mar 14
Last Quarter
Mar 22
New

Hourly Weather History & Observations

Time (PST) Temp. Windchill Dew Point Humidity Pressure Visibility Wind Dir Wind Speed Gust Speed Precip Events Conditions
12:56 AM 48.0 °F - 37.0 °F 66% 30.06 in 10.0 mi Variable 4.6 mph - N/A   Overcast
1:56 AM 48.0 °F - 36.0 °F 63% 30.02 in 10.0 mi WSW 10.4 mph 21.9 mph N/A   Overcast
2:56 AM 46.9 °F - 36.0 °F 66% 30.01 in 10.0 mi WSW 8.1 mph - N/A   Overcast
3:56 AM 46.4 °F 42.4 °F 35.6 °F 66% - 10.0 mi WSW 8.1 mph - N/A   Overcast
4:56 AM 46.0 °F 41.4 °F 36.0 °F 68% 29.98 in 10.0 mi West 9.2 mph - 0.00 in Rain Light Rain
5:05 AM - - - N/A% - - North - - N/A   Unknown
5:56 AM 46.0 °F 43.1 °F 34.0 °F 63% 29.98 in 10.0 mi Variable 5.8 mph 16.1 mph 0.00 in Rain Light Rain
6:56 AM 43.0 °F 37.7 °F 36.0 °F 76% 29.96 in 6.0 mi WSW 9.2 mph 27.6 mph 0.03 in Rain Light Rain
7:40 AM 42.8 °F 38.0 °F 35.6 °F 76% 29.93 in 2.5 mi West 8.1 mph 25.3 mph 0.04 in Rain Light Rain
7:56 AM 43.0 °F 38.8 °F 36.0 °F 76% 29.95 in 5.0 mi Variable 6.9 mph 28.8 mph 0.05 in Rain Light Rain
8:12 AM 42.8 °F 37.0 °F 37.4 °F 81% 29.94 in 1.5 mi West 10.4 mph 35.7 mph 0.03 in Rain Rain
8:28 AM 41.0 °F 35.8 °F 37.4 °F 87% 29.95 in 2.5 mi West 8.1 mph - 0.13 in Rain Rain
8:40 AM 41.0 °F 35.2 °F 37.4 °F 87% 29.95 in 5.0 mi West 9.2 mph 16.1 mph 0.14 in Rain Light Rain
8:49 AM 41.0 °F 35.8 °F 37.4 °F 87% 29.95 in 1.5 mi West 8.1 mph 19.6 mph 0.16 in Rain Rain
8:56 AM 41.0 °F 36.4 °F 37.0 °F 86% 29.98 in 1.0 mi Variable 6.9 mph 24.2 mph 0.19 in Rain Rain
9:22 AM 41.0 °F 36.4 °F 37.4 °F 87% 29.95 in 3.0 mi Variable 6.9 mph 20.7 mph 0.06 in Rain Light Rain
9:56 AM 41.0 °F 36.4 °F 36.0 °F 82% 29.98 in 10.0 mi Variable 6.9 mph 27.6 mph 0.06 in   Overcast
10:56 AM 41.0 °F 34.7 °F 34.0 °F 76% 29.98 in 10.0 mi West 10.4 mph 28.8 mph N/A   Overcast
11:56 AM 39.9 °F 33.9 °F 34.0 °F 79% 30.00 in 9.0 mi West 9.2 mph 23.0 mph 0.00 in Rain Light Rain
12:20 PM 39.2 °F 33.0 °F 35.6 °F 87% 29.98 in 9.0 mi West 9.2 mph 23.0 mph 0.00 in Rain Light Rain
12:56 PM 39.0 °F 31.8 °F 33.1 °F 79% 30.02 in 10.0 mi WNW 11.5 mph 28.8 mph 0.00 in   Overcast
1:03 PM 39.2 °F 31.6 °F 30.2 °F 70% 30.00 in 10.0 mi WNW 12.7 mph 29.9 mph N/A   Overcast
1:16 PM 39.2 °F 33.0 °F 28.4 °F 65% 30.01 in 10.0 mi West 9.2 mph 24.2 mph N/A   Overcast
1:56 PM 41.0 °F 34.7 °F 19.9 °F 43% 30.02 in 10.0 mi WNW 10.4 mph 26.5 mph N/A   Partly Cloudy
2:56 PM 39.0 °F 32.3 °F 16.0 °F 39% 30.06 in 10.0 mi WNW 10.4 mph 21.9 mph N/A   Clear
3:56 PM 37.0 °F 28.5 °F 21.0 °F 52% 30.07 in 10.0 mi West 13.8 mph 29.9 mph N/A   Mostly Cloudy
4:56 PM 35.1 °F 28.6 °F 23.0 °F 61% 30.08 in 10.0 mi West 8.1 mph 17.3 mph N/A   Overcast
5:56 PM 33.1 °F 26.9 °F 23.0 °F 66% 30.10 in 10.0 mi Variable 6.9 mph 20.7 mph N/A   Overcast
6:40 PM 33.8 °F 27.0 °F 24.8 °F 70% 30.04 in 10.0 mi West 8.1 mph 24.2 mph N/A   Mostly Cloudy
6:48 PM 32.0 °F 24.2 °F 23.0 °F 69% 30.05 in 10.0 mi West 9.2 mph 24.2 mph N/A   Mostly Cloudy
6:56 PM 32.0 °F 25.6 °F 23.0 °F 69% 30.10 in 10.0 mi Variable 6.9 mph - N/A   Overcast
7:08 PM 32.0 °F 24.2 °F 23.0 °F 69% 30.06 in 10.0 mi West 9.2 mph 20.7 mph N/A   Overcast
7:38 PM 30.2 °F 24.3 °F 23.0 °F 75% 30.07 in 10.0 mi Variable 5.8 mph 24.2 mph N/A   Overcast
7:56 PM 30.9 °F 24.3 °F 24.1 °F 76% 30.12 in 10.0 mi Variable 6.9 mph - N/A   Overcast
8:56 PM 30.0 °F 21.1 °F 23.0 °F 75% 30.15 in 10.0 mi West 10.4 mph 25.3 mph N/A   Overcast
9:56 PM 30.0 °F 22.4 °F 24.1 °F 79% 30.16 in 10.0 mi West 8.1 mph 21.9 mph N/A   Overcast
10:20 PM 30.2 °F 22.6 °F 24.8 °F 80% 30.11 in 10.0 mi West 8.1 mph 18.4 mph N/A   Overcast
10:56 PM 28.9 °F 21.9 °F 24.1 °F 82% 30.19 in 10.0 mi Variable 6.9 mph 18.4 mph N/A   Overcast
11:05 PM 28.4 °F 21.2 °F 23.0 °F 80% 30.13 in 10.0 mi Variable 6.9 mph - N/A   Overcast
11:56 PM 28.9 °F 21.1 °F 23.0 °F 78% 30.20 in 10.0 mi West 8.1 mph - N/A   Overcast